Regional Weather Roundup
Issued by NWS Lake Charles, LA

Home | Current Version | Previous Version | Text Only | Print | Product List | Glossary On
Versions: 1 2 3 4 5 6 7 8 9 10 11 12 13 14 15 16 17 18 19 20 21 22 23 24 25 26 27 28 29 30 31 32 33 34 35 36 37 38 39 40 41 42 43 44 45 46 47 48 49 50
000
ASUS44 KLCH 012110
RWRLCH
RWRLCH
REGIONAL WEATHER ROUNDUP
NATIONAL WEATHER SERVICE LAKE CHARLES LA
400 PM CDT MON SEP 01 2014

Note: "fair" indicates few or no clouds below 12,000 feet with no
significant weather and/or obstructions to visibility.


ACROSS SOUTHEAST TEXAS

CITY           SKY/WX    TMP DP  RH WIND       PRES   REMARKS
BEAUMONT       PTSUNNY   89  76  65 S12       29.93F HX 100
BEAUMONT CITY    N/A     89  76  65 S12       29.94S HX 101
ORANGE         PTCLDY    89  76  67 S12G17    29.95F HX 100
JASPER         PTSUNNY   83  75  74 SE5       29.96F
$$

ACROSS CENTRAL LOUISIANA

CITY           SKY/WX    TMP DP  RH WIND       PRES   REMARKS
LEESVILLE      CLOUDY    86  76  71 S8        29.96F
FULLERTON        N/A     90  77  65 VRB3      29.94F HX 103
ALEXANDRIA INT MOSUNNY   90  74  59 SE7       29.93F
ESLER FIELD    MOSUNNY   92  75  57 S3        29.95F HX 103
DERIDDER         N/A     85  77  75 CALM      29.97F HAZE
OAKDALE        LGT RAIN  81  77  87 SE3       29.96F
OPELOUSAS      MOCLDY    83  78  84 S6        29.96S
$$

ACROSS SOUTHWEST AND SOUTH CENTRAL LOUISIANA

CITY           SKY/WX    TMP DP  RH WIND       PRES   REMARKS
SULPHUR        PTCLDY    91  76  62 S16G22    29.95F HX 102
LAKE CHARLES   MOSUNNY   89  74  60 S10       29.94F
CHENNAULT INT  MOSUNNY   86  75  70 S13       29.96F
CAMERON PHI    CLEAR     86  79  79 SE12      29.95F
DEQUINCY         N/A     88  76  69 S10       29.94F
JENNINGS         N/A     87  78  74 SE9G17    29.96F
LAFAYETTE      PTSUNNY   89  75  63 S12       29.97F
NEW IBERIA     PTSUNNY   88  76  67 S14       29.98F
ABBEVILLE        N/A     85  78  79 SE7       29.97F
PATTERSON      PTSUNNY   86  77  74 S7        30.02R
SALT POINT       N/A     90  80  72 VRB6      29.98F HX 107
$$

SELECTED SITES ACROSS THE REGION

CITY           SKY/WX    TMP DP  RH WIND       PRES   REMARKS
HOUSTON BUSH   PTSUNNY   88  77  70 W8        29.91F HX 100
HOUSTON HOBBY  PTSUNNY   91  73  55 SE10G20   29.90F
GALVESTON      MOSUNNY   89  79  72 SE10      29.93F HX 104
COLLEGE STAT   SUNNY     96  67  38 SE17G24   29.88F HX 100
CONROE         MOSUNNY   93  72  50 SE14      29.92F HX 101
HUNTSVILLE     PTSUNNY   93  70  46 S7        29.91F
LUFKIN         MOSUNNY   96  73  47 SE12      29.91F HX 105
SHREVEPORT     MOSUNNY   96  70  42 S10       29.91F HX 102
MONROE         PTSUNNY   90  72  55 S8        29.96F
NATCHEZ MS     PTSUNNY   79  73  83 S3        30.00F
BATON ROUGE    CLOUDY    81  73  76 SW7       30.00R
N.O. INTL ARPT PTSUNNY   83  74  74 E15       30.01S THUNDER
SLIDELL        PTSUNNY   86  76  71 SE12      30.01F
$$

MARINE REPORTS

STATION/POSITION TIME  TEMP    WIND        PRES    VSBY  WAVE
                       AIR SEA DIR/SP/G                  HT/PER
                 (UTC) (F)     (DEG/KT/KT) (MB)    (MI)  (FT/S)
BUOY 30 S HIGH I 2100   85 86  150/ 10/ 12 1013.2F         3/ 6
SEA RIM ST PARK  2100   85     160/ 11/ 12 1014.3F
PORT ARTHUR      2100      86  160/  8/ 12 1013.9F
SABINE PASS N    2100   86 85  180/ 12/ 16 1014.1F
TEXAS POINT      2100   84 85  150/ 13/ 15 1014.2F
CALCASIEU PASS   2100   84 84  150/ 10/ 12 1015.3F
LK CHARLES BEACH 2100   89 82              1014.8F
MARSH ISLAND     NOT AVBL
FRESH WATER LOCK 2100   85 84  150/ 10/ 12 1014.8F
AMERADA PASS     2100   87 87  170/  7/ 14 1015.4S
$$


USA.gov is the U.S. government's official web portal to all federal, state and local government web resources and services.